QPF
0.00 0.00 0.00 0.00 0.00 0.00 0.00 0.00 0.00 0.00 0.00 0.00 0.00 0.00 0.00 0.00 0.00 0.00 0.01 0.01 0.01 0.01 0.00 0.01 0.01 0.01 0.01 0.01 0.01 0.01 0.01 0.02 0.02 0.02 0.01 0.01 0.01 0.01 0.02 0.01 0.02 0.01 0.02 0.03 0.02 0.01 0.01 0.01 0.01
0.00 0.00 0.00 0.00 0.00 0.00 0.00 0.00 0.00 0.00 0.00 0.01 0.01 0.00 0.00 0.00 0.01 0.01 0.01 0.01 0.01 0.01 0.00 0.01 0.01 0.02 0.02 0.01 0.01 0.01 0.01 0.02 0.02 0.02 0.03 0.03 0.02 0.02 0.04 0.02 0.02 0.02 0.02 0.02 0.02 0.02 0.01 0.01 0.01
0.00 0.00 0.00 0.00 0.00 0.00 0.00 0.00 0.00 0.00 0.00 0.00 0.01 0.01 0.01 0.01 0.01 0.01 0.01 0.01 0.01 0.01 0.01 0.02 0.02 0.02 0.02 0.02 0.01 0.01 0.01 0.02 0.02 0.02 0.03 0.04 0.05 0.04 0.06 0.03 0.02 0.02 0.01 0.01 0.01 0.02 0.02 0.01 0.00
0.00 0.00 0.00 0.01 0.00 0.00 0.00 0.00 0.00 0.00 0.00 0.00 0.01 0.01 0.01 0.01 0.01 0.01 0.01 0.00 0.00 0.01 0.01 0.02 0.02 0.02 0.02 0.02 0.02 0.02 0.02 0.02 0.02 0.02 0.03 0.04 0.06 0.05 0.04 0.03 0.02 0.01 0.01 0.01 0.01 0.01 0.02 0.01 0.01
0.00 0.00 0.00 0.01 0.00 0.00 0.00 0.00 0.00 0.00 0.00 0.00 0.01 0.01 0.02 0.02 0.02 0.02 0.01 0.00 0.01 0.01 0.01 0.02 0.02 0.02 0.02 0.02 0.02 0.02 0.02 0.02 0.03 0.03 0.04 0.05 0.05 0.04 0.03 0.02 0.02 0.01 0.01 0.01 0.01 0.01 0.01 0.02 0.02
0.00 0.00 0.00 0.00 0.00 0.00 0.00 0.00 0.00 0.00 0.00 0.00 0.00 0.01 0.02 0.03 0.04 0.03 0.03 0.01 0.01 0.01 0.01 0.02 0.03 0.03 0.03 0.03 0.04 0.04 0.04 0.03 0.04 0.04 0.04 0.04 0.03 0.03 0.02 0.01 0.01 0.01 0.01 0.01 0.01 0.01 0.01 0.02 0.02
0.00 0.00 0.00 0.00 0.00 0.00 0.00 0.00 0.00 0.00 0.00 0.00 0.00 0.01 0.03 0.05 0.06 0.05 0.04 0.03 0.02 0.01 0.01 0.02 0.03 0.03 0.03 0.04 0.05 0.05 0.05 0.04 0.04 0.05 0.06 0.05 0.03 0.03 0.02 0.02 0.02 0.01 0.01 0.01 0.01 0.00 0.01 0.01 0.02
0.00 0.00 0.00 0.00 0.01 0.00 0.01 0.00 0.00 0.00 0.00 0.00 0.00 0.01 0.02 0.03 0.06 0.08 0.08 0.05 0.03 0.02 0.02 0.02 0.02 0.02 0.03 0.03 0.05 0.07 0.06 0.04 0.03 0.03 0.05 0.05 0.04 0.03 0.03 0.02 0.02 0.01 0.01 0.01 0.01 0.01 0.01 0.01 0.02
0.00 0.00 0.00 0.00 0.00 0.01 0.00 0.00 0.00 0.00 0.00 0.00 0.01 0.02 0.03 0.05 0.07 0.11 0.11 0.07 0.05 0.03 0.03 0.03 0.03 0.03 0.03 0.04 0.07 0.09 0.07 0.04 0.03 0.04 0.03 0.02 0.03 0.03 0.03 0.02 0.02 0.01 0.01 0.00 0.01 0.01 0.01 0.01 0.02
0.00 0.00 0.00 0.00 0.00 0.00 0.00 0.00 0.00 0.00 0.00 0.00 0.01 0.01 0.02 0.06 0.08 0.11 0.15 0.13 0.08 0.04 0.03 0.05 0.05 0.05 0.05 0.05 0.06 0.07 0.06 0.04 0.03 0.03 0.02 0.01 0.01 0.01 0.01 0.01 0.01 0.01 0.01 0.01 0.01 0.01 0.01 0.01 0.01
0.00 0.00 0.00 0.00 0.00 0.00 0.00 0.01 0.00 0.00 0.00 0.00 0.01 0.01 0.02 0.03 0.06 0.08 0.14 0.16 0.15 0.08 0.04 0.04 0.08 0.08 0.06 0.06 0.06 0.06 0.06 0.06 0.05 0.04 0.02 0.02 0.02 0.01 0.01 0.00 0.01 0.01 0.01 0.01 0.01 0.01 0.01 0.01 0.01
0.00 0.00 0.00 0.00 0.00 0.00 0.00 0.01 0.01 0.00 0.00 0.00 0.00 0.01 0.01 0.01 0.03 0.05 0.08 0.13 0.20 0.15 0.06 0.04 0.06 0.10 0.08 0.07 0.08 0.08 0.07 0.07 0.06 0.05 0.04 0.03 0.03 0.01 0.01 0.00 0.00 0.01 0.01 0.01 0.01 0.01 0.00 0.00 0.01
0.00 0.00 0.00 0.00 0.00 0.00 0.00 0.00 0.01 0.01 0.00 0.00 0.00 0.01 0.01 0.01 0.01 0.04 0.06 0.09 0.15 0.20 0.12 0.05 0.05 0.09 0.10 0.08 0.08 0.10 0.09 0.07 0.06 0.06 0.07 0.05 0.03 0.01 0.01 0.00 0.00 0.00 0.01 0.01 0.02 0.01 0.01 0.01 0.01
0.00 0.00 0.00 0.00 0.00 0.00 0.00 0.00 0.00 0.01 0.01 0.00 0.00 0.00 0.00 0.01 0.01 0.02 0.03 0.06 0.10 0.15 0.16 0.08 0.06 0.09 0.12 0.09 0.09 0.10 0.09 0.09 0.11 0.11 0.11 0.09 0.06 0.03 0.01 0.01 0.00 0.00 0.00 0.01 0.02 0.02 0.01 0.01 0.01
0.01 0.00 0.00 0.00 0.00 0.00 0.00 0.00 0.00 0.00 0.01 0.00 0.00 0.00 0.00 0.01 0.01 0.01 0.01 0.04 0.08 0.11 0.15 0.11 0.07 0.09 0.13 0.13 0.12 0.12 0.13 0.12 0.09 0.09 0.10 0.11 0.10 0.07 0.05 0.03 0.01 0.01 0.00 0.00 0.01 0.03 0.03 0.02 0.01
0.01 0.01 0.00 0.00 0.00 0.00 0.00 0.01 0.00 0.00 0.01 0.00 0.00 0.01 0.01 0.01 0.01 0.01 0.02 0.03 0.06 0.09 0.13 0.13 0.09 0.09 0.13 0.17 0.17 0.15 0.13 0.13 0.10 0.07 0.06 0.07 0.07 0.08 0.07 0.05 0.03 0.02 0.01 0.01 0.00 0.01 0.02 0.03 0.02
0.01 0.01 0.01 0.00 0.00 0.00 0.01 0.01 0.01 0.01 0.01 0.00 0.00 0.00 0.01 0.01 0.01 0.02 0.02 0.03 0.05 0.07 0.09 0.11 0.09 0.11 0.14 0.18 0.19 0.16 0.12 0.09 0.10 0.11 0.08 0.05 0.04 0.03 0.02 0.02 0.03 0.02 0.02 0.01 0.01 0.01 0.01 0.01 0.02
0.00 0.00 0.00 0.00 0.00 0.00 0.01 0.01 0.01 0.01 0.01 0.00 0.00 0.00 0.01 0.01 0.01 0.01 0.02 0.04 0.07 0.08 0.07 0.09 0.09 0.12 0.17 0.20 0.22 0.16 0.11 0.10 0.10 0.14 0.15 0.10 0.05 0.03 0.02 0.01 0.01 0.01 0.01 0.01 0.01 0.01 0.01 0.01 0.01
0.01 0.01 0.01 0.00 0.00 0.01 0.01 0.01 0.01 0.01 0.01 0.01 0.01 0.00 0.01 0.00 0.01 0.01 0.02 0.03 0.07 0.10 0.08 0.06 0.06 0.10 0.15 0.18 0.21 0.19 0.14 0.10 0.09 0.12 0.14 0.13 0.09 0.06 0.03 0.02 0.01 0.01 0.01 0.01 0.02 0.02 0.01 0.01 0.01
0.01 0.01 0.01 0.01 0.00 0.01 0.01 0.02 0.01 0.01 0.02 0.02 0.02 0.02 0.01 0.01 0.01 0.01 0.02 0.03 0.05 0.09 0.11 0.09 0.05 0.06 0.11 0.16 0.19 0.18 0.13 0.09 0.08 0.10 0.12 0.11 0.08 0.05 0.03 0.02 0.03 0.02 0.02 0.02 0.02 0.02 0.02 0.01 0.01
0.01 0.01 0.01 0.01 0.01 0.01 0.01 0.02 0.02 0.02 0.03 0.02 0.03 0.04 0.02 0.02 0.02 0.02 0.02 0.02 0.02 0.05 0.10 0.13 0.10 0.05 0.06 0.12 0.18 0.20 0.16 0.10 0.07 0.09 0.13 0.13 0.11 0.08 0.05 0.02 0.02 0.03 0.03 0.03 0.03 0.03 0.04 0.03 0.02
0.01 0.01 0.01 0.01 0.02 0.01 0.01 0.01 0.02 0.02 0.02 0.03 0.04 0.06 0.04 0.04 0.04 0.03 0.02 0.02 0.02 0.02 0.05 0.08 0.11 0.09 0.08 0.10 0.14 0.18 0.18 0.13 0.09 0.08 0.10 0.10 0.10 0.10 0.08 0.04 0.03 0.02 0.03 0.04 0.05 0.05 0.05 0.05 0.04
0.01 0.01 0.01 0.01 0.02 0.02 0.01 0.01 0.01 0.02 0.01 0.02 0.04 0.07 0.05 0.04 0.04 0.04 0.06 0.06 0.03 0.01 0.02 0.03 0.06 0.08 0.09 0.11 0.16 0.15 0.15 0.13 0.11 0.11 0.11 0.10 0.09 0.08 0.07 0.05 0.02 0.01 0.01 0.02 0.03 0.04 0.04 0.04 0.05
0.01 0.01 0.02 0.02 0.02 0.02 0.01 0.00 0.00 0.00 0.00 0.00 0.01 0.03 0.04 0.03 0.04 0.03 0.03 0.03 0.02 0.02 0.02 0.02 0.03 0.05 0.07 0.08 0.15 0.18 0.13 0.13 0.11 0.12 0.11 0.10 0.09 0.07 0.06 0.05 0.03 0.01 0.01 0.01 0.01 0.02 0.02 0.03 0.04
0.01 0.03 0.03 0.03 0.03 0.01 0.00 0.00 0.00 0.00 0.00 0.00 0.00 0.01 0.02 0.03 0.02 0.02 0.02 0.02 0.02 0.03 0.01 0.02 0.02 0.03 0.05 0.07 0.11 0.17 0.14 0.12 0.11 0.11 0.11 0.10 0.09 0.07 0.05 0.04 0.03 0.02 0.01 0.00 0.00 0.01 0.01 0.01 0.02
0.01 0.02 0.03 0.02 0.01 0.00 0.00 0.00 0.00 0.00 0.00 0.00 0.00 0.00 0.01 0.01 0.02 0.01 0.01 0.01 0.01 0.03 0.02 0.01 0.02 0.02 0.04 0.05 0.08 0.13 0.13 0.10 0.10 0.10 0.10 0.09 0.09 0.09 0.06 0.03 0.02 0.01 0.01 0.01 0.00 0.00 0.00 0.01 0.01
0.01 0.01 0.01 0.01 0.01 0.00 0.00 0.00 0.00 0.00 0.00 0.00 0.00 0.00 0.00 0.01 0.01 0.01 0.02 0.01 0.01 0.02 0.02 0.01 0.02 0.03 0.04 0.04 0.05 0.10 0.11 0.09 0.07 0.07 0.08 0.08 0.07 0.08 0.07 0.04 0.02 0.01 0.00 0.00 0.00 0.00 0.00 0.00 0.00
0.01 0.01 0.01 0.02 0.01 0.00 0.00 0.00 0.00 0.00 0.00 0.00 0.00 0.00 0.00 0.00 0.01 0.01 0.02 0.02 0.02 0.02 0.01 0.01 0.02 0.03 0.04 0.04 0.04 0.07 0.09 0.08 0.07 0.07 0.07 0.06 0.06 0.06 0.06 0.05 0.03 0.02 0.01 0.01 0.01 0.01 0.00 0.00 0.00
0.02 0.02 0.02 0.02 0.01 0.00 0.00 0.00 0.00 0.00 0.00 0.00 0.00 0.00 0.00 0.00 0.01 0.01 0.01 0.02 0.03 0.03 0.03 0.03 0.02 0.03 0.05 0.05 0.04 0.06 0.07 0.06 0.07 0.07 0.06 0.05 0.04 0.04 0.04 0.04 0.03 0.02 0.02 0.01 0.01 0.01 0.01 0.01 0.01
0.01 0.02 0.03 0.03 0.02 0.01 0.00 0.00 0.00 0.00 0.00 0.00 0.00 0.00 0.00 0.00 0.00 0.02 0.04 0.03 0.04 0.04 0.03 0.03 0.03 0.04 0.05 0.05 0.05 0.05 0.06 0.05 0.05 0.06 0.07 0.06 0.03 0.02 0.02 0.03 0.03 0.02 0.02 0.01 0.01 0.00 0.00 0.01 0.01
MSLP
1014.80 1015.31 1016.01 1016.74 1017.36 1017.71 1017.69 1017.28 1016.52 1015.52 1014.43 1013.39 1012.53 1011.89 1011.49 1011.29 1011.22 1011.19 1011.17 1011.12 1011.08 1011.08 1011.17 1011.38 1011.73 1012.18 1012.70 1013.22 1013.69 1014.07 1014.37 1014.60 1014.79 1014.98 1015.20 1015.46 1015.75 1016.04 1016.30 1016.51 1016.65 1016.72 1016.74 1016.75 1016.75 1016.78 1016.83 1016.91 1016.99
1015.10 1015.75 1016.54 1017.30 1017.88 1018.13 1017.97 1017.38 1016.45 1015.29 1014.09 1012.98 1012.08 1011.45 1011.07 1010.90 1010.86 1010.86 1010.86 1010.85 1010.84 1010.87 1011.01 1011.27 1011.67 1012.17 1012.72 1013.27 1013.76 1014.16 1014.47 1014.70 1014.90 1015.10 1015.34 1015.61 1015.91 1016.20 1016.47 1016.67 1016.80 1016.87 1016.89 1016.89 1016.90 1016.94 1017.01 1017.09 1017.19
1015.53 1016.28 1017.11 1017.87 1018.39 1018.53 1018.24 1017.53 1016.48 1015.24 1013.98 1012.86 1011.97 1011.35 1010.99 1010.83 1010.78 1010.78 1010.77 1010.74 1010.74 1010.79 1010.96 1011.27 1011.71 1012.26 1012.85 1013.41 1013.92 1014.32 1014.63 1014.86 1015.06 1015.27 1015.50 1015.78 1016.07 1016.35 1016.61 1016.79 1016.91 1016.97 1017.00 1017.01 1017.04 1017.10 1017.19 1017.30 1017.41
1016.07 1016.86 1017.70 1018.42 1018.85 1018.90 1018.51 1017.72 1016.63 1015.38 1014.15 1013.06 1012.21 1011.63 1011.28 1011.10 1011.01 1010.95 1010.89 1010.83 1010.80 1010.86 1011.04 1011.38 1011.86 1012.44 1013.05 1013.63 1014.14 1014.54 1014.84 1015.07 1015.26 1015.47 1015.70 1015.97 1016.25 1016.53 1016.76 1016.93 1017.04 1017.09 1017.12 1017.14 1017.19 1017.27 1017.39 1017.52 1017.66
1016.66 1017.46 1018.26 1018.90 1019.25 1019.21 1018.77 1017.96 1016.89 1015.70 1014.56 1013.56 1012.78 1012.23 1011.88 1011.66 1011.51 1011.36 1011.22 1011.08 1011.01 1011.04 1011.23 1011.58 1012.08 1012.67 1013.29 1013.88 1014.38 1014.77 1015.07 1015.29 1015.50 1015.70 1015.94 1016.21 1016.49 1016.75 1016.97 1017.12 1017.21 1017.26 1017.28 1017.32 1017.38 1017.48 1017.61 1017.76 1017.92
1017.25 1018.01 1018.73 1019.27 1019.53 1019.42 1018.96 1018.18 1017.20 1016.14 1015.12 1014.25 1013.57 1013.06 1012.70 1012.43 1012.18 1011.93 1011.67 1011.45 1011.32 1011.31 1011.49 1011.83 1012.33 1012.92 1013.54 1014.11 1014.60 1014.98 1015.28 1015.52 1015.73 1015.97 1016.22 1016.51 1016.79 1017.05 1017.26 1017.39 1017.47 1017.50 1017.52 1017.55 1017.61 1017.71 1017.85 1018.01 1018.17
1017.78 1018.46 1019.06 1019.49 1019.65 1019.50 1019.04 1018.34 1017.48 1016.58 1015.73 1015.00 1014.42 1013.97 1013.59 1013.26 1012.91 1012.55 1012.19 1011.88 1011.67 1011.63 1011.77 1012.10 1012.58 1013.15 1013.74 1014.29 1014.77 1015.15 1015.45 1015.71 1015.97 1016.23 1016.53 1016.84 1017.14 1017.41 1017.61 1017.74 1017.80 1017.82 1017.82 1017.83 1017.88 1017.97 1018.10 1018.25 1018.41
1018.20 1018.76 1019.23 1019.54 1019.61 1019.41 1018.98 1018.37 1017.66 1016.93 1016.26 1015.68 1015.20 1014.80 1014.42 1014.03 1013.60 1013.14 1012.69 1012.30 1012.04 1011.95 1012.06 1012.36 1012.81 1013.35 1013.90 1014.42 1014.88 1015.26 1015.58 1015.87 1016.17 1016.49 1016.83 1017.19 1017.51 1017.79 1018.00 1018.12 1018.16 1018.16 1018.14 1018.13 1018.16 1018.23 1018.34 1018.47 1018.62
1018.50 1018.92 1019.25 1019.42 1019.40 1019.18 1018.78 1018.26 1017.68 1017.12 1016.61 1016.17 1015.79 1015.43 1015.06 1014.64 1014.16 1013.64 1013.13 1012.70 1012.40 1012.28 1012.36 1012.62 1013.04 1013.53 1014.04 1014.52 1014.95 1015.33 1015.67 1016.00 1016.34 1016.72 1017.11 1017.50 1017.86 1018.15 1018.36 1018.47 1018.50 1018.49 1018.45 1018.42 1018.43 1018.48 1018.56 1018.68 1018.80
1018.69 1018.97 1019.15 1019.19 1019.08 1018.82 1018.44 1018.00 1017.54 1017.12 1016.74 1016.42 1016.13 1015.82 1015.47 1015.05 1014.55 1014.02 1013.51 1013.07 1012.77 1012.64 1012.70 1012.93 1013.29 1013.73 1014.19 1014.62 1015.02 1015.39 1015.74 1016.10 1016.49 1016.90 1017.34 1017.75 1018.13 1018.43 1018.63 1018.74 1018.77 1018.74 1018.70 1018.67 1018.67 1018.70 1018.77 1018.87 1018.98
1018.80 1018.94 1018.98 1018.90 1018.70 1018.40 1018.03 1017.64 1017.27 1016.94 1016.66 1016.43 1016.21 1015.95 1015.64 1015.26 1014.80 1014.31 1013.84 1013.45 1013.17 1013.06 1013.12 1013.32 1013.63 1014.00 1014.40 1014.78 1015.14 1015.49 1015.84 1016.22 1016.62 1017.06 1017.50 1017.93 1018.30 1018.60 1018.80 1018.90 1018.93 1018.91 1018.88 1018.86 1018.86 1018.90 1018.97 1019.06 1019.16
1018.89 1018.90 1018.81 1018.62 1018.34 1017.99 1017.61 1017.24 1016.91 1016.64 1016.43 1016.25 1016.08 1015.89 1015.64 1015.33 1014.95 1014.55 1014.17 1013.85 1013.65 1013.57 1013.63 1013.80 1014.07 1014.38 1014.71 1015.03 1015.35 1015.67 1016.00 1016.37 1016.77 1017.19 1017.62 1018.03 1018.38 1018.65 1018.84 1018.94 1018.98 1018.99 1018.99 1018.99 1019.03 1019.09 1019.17 1019.27 1019.37
1019.00 1018.90 1018.69 1018.40 1018.04 1017.64 1017.24 1016.87 1016.55 1016.30 1016.12 1015.97 1015.85 1015.72 1015.55 1015.33 1015.07 1014.79 1014.53 1014.33 1014.20 1014.17 1014.24 1014.39 1014.61 1014.86 1015.13 1015.39 1015.66 1015.94 1016.25 1016.58 1016.95 1017.34 1017.72 1018.08 1018.38 1018.62 1018.79 1018.90 1018.96 1019.00 1019.04 1019.10 1019.18 1019.27 1019.38 1019.49 1019.60
1019.14 1018.95 1018.66 1018.29 1017.87 1017.43 1016.99 1016.60 1016.27 1016.02 1015.84 1015.71 1015.62 1015.54 1015.45 1015.35 1015.22 1015.08 1014.95 1014.86 1014.82 1014.84 1014.93 1015.07 1015.24 1015.44 1015.65 1015.87 1016.09 1016.33 1016.59 1016.88 1017.20 1017.52 1017.84 1018.12 1018.37 1018.56 1018.71 1018.81 1018.90 1018.98 1019.08 1019.19 1019.33 1019.47 1019.61 1019.74 1019.85
1019.32 1019.05 1018.70 1018.28 1017.83 1017.36 1016.90 1016.49 1016.14 1015.87 1015.67 1015.55 1015.48 1015.45 1015.44 1015.44 1015.43 1015.43 1015.43 1015.44 1015.48 1015.55 1015.64 1015.77 1015.91 1016.07 1016.24 1016.42 1016.61 1016.81 1017.04 1017.28 1017.52 1017.77 1018.00 1018.21 1018.38 1018.52 1018.64 1018.74 1018.85 1018.98 1019.14 1019.31 1019.50 1019.69 1019.86 1020.00 1020.12
1019.49 1019.18 1018.80 1018.37 1017.90 1017.43 1016.98 1016.56 1016.19 1015.90 1015.68 1015.55 1015.49 1015.49 1015.55 1015.63 1015.73 1015.83 1015.93 1016.03 1016.13 1016.22 1016.33 1016.44 1016.56 1016.70 1016.84 1017.00 1017.17 1017.36 1017.55 1017.74 1017.93 1018.09 1018.24 1018.36 1018.46 1018.55 1018.63 1018.74 1018.87 1019.04 1019.23 1019.46 1019.69 1019.91 1020.10 1020.26 1020.37
1019.62 1019.30 1018.93 1018.52 1018.08 1017.64 1017.21 1016.79 1016.42 1016.11 1015.87 1015.72 1015.66 1015.68 1015.77 1015.92 1016.09 1016.26 1016.43 1016.58 1016.71 1016.82 1016.93 1017.03 1017.14 1017.27 1017.41 1017.58 1017.75 1017.93 1018.10 1018.25 1018.38 1018.48 1018.54 1018.58 1018.61 1018.65 1018.71 1018.81 1018.96 1019.15 1019.38 1019.63 1019.89 1020.12 1020.33 1020.49 1020.60
1019.68 1019.38 1019.05 1018.70 1018.33 1017.95 1017.57 1017.18 1016.81 1016.49 1016.23 1016.05 1015.97 1015.99 1016.09 1016.26 1016.46 1016.68 1016.88 1017.05 1017.19 1017.31 1017.41 1017.50 1017.61 1017.75 1017.91 1018.10 1018.29 1018.48 1018.64 1018.77 1018.85 1018.88 1018.88 1018.85 1018.83 1018.82 1018.86 1018.95 1019.10 1019.30 1019.55 1019.81 1020.07 1020.31 1020.52 1020.68 1020.80
1019.66 1019.42 1019.17 1018.91 1018.64 1018.34 1018.02 1017.68 1017.32 1016.99 1016.70 1016.48 1016.37 1016.35 1016.44 1016.60 1016.81 1017.03 1017.24 1017.41 1017.55 1017.66 1017.76 1017.85 1017.97 1018.13 1018.32 1018.54 1018.76 1018.97 1019.13 1019.24 1019.29 1019.28 1019.22 1019.14 1019.07 1019.03 1019.05 1019.13 1019.28 1019.48 1019.72 1019.97 1020.22 1020.46 1020.65 1020.82 1020.95
1019.58 1019.42 1019.28 1019.14 1018.98 1018.79 1018.55 1018.25 1017.90 1017.54 1017.21 1016.95 1016.78 1016.72 1016.76 1016.90 1017.08 1017.29 1017.49 1017.66 1017.79 1017.89 1017.99 1018.09 1018.23 1018.41 1018.64 1018.89 1019.14 1019.36 1019.53 1019.63 1019.65 1019.60 1019.51 1019.39 1019.29 1019.23 1019.23 1019.31 1019.45 1019.64 1019.87 1020.10 1020.33 1020.55 1020.73 1020.90 1021.06
1019.49 1019.43 1019.41 1019.41 1019.38 1019.28 1019.11 1018.84 1018.49 1018.10 1017.72 1017.38 1017.14 1017.02 1017.01 1017.10 1017.26 1017.45 1017.64 1017.80 1017.92 1018.03 1018.13 1018.24 1018.40 1018.61 1018.85 1019.13 1019.40 1019.63 1019.81 1019.89 1019.89 1019.82 1019.70 1019.57 1019.46 1019.39 1019.39 1019.46 1019.59 1019.77 1019.97 1020.18 1020.39 1020.58 1020.77 1020.95 1021.13
1019.45 1019.49 1019.60 1019.72 1019.80 1019.80 1019.68 1019.42 1019.06 1018.61 1018.16 1017.75 1017.43 1017.23 1017.16 1017.21 1017.34 1017.52 1017.70 1017.86 1017.99 1018.10 1018.21 1018.34 1018.51 1018.73 1018.99 1019.27 1019.54 1019.77 1019.93 1020.01 1020.00 1019.91 1019.79 1019.65 1019.54 1019.47 1019.48 1019.55 1019.68 1019.85 1020.03 1020.22 1020.40 1020.58 1020.76 1020.95 1021.17
1019.48 1019.64 1019.86 1020.09 1020.26 1020.32 1020.23 1019.97 1019.56 1019.06 1018.52 1018.02 1017.62 1017.35 1017.23 1017.24 1017.35 1017.52 1017.71 1017.88 1018.02 1018.15 1018.27 1018.40 1018.57 1018.78 1019.03 1019.30 1019.55 1019.77 1019.91 1019.98 1019.96 1019.87 1019.75 1019.63 1019.54 1019.49 1019.51 1019.60 1019.73 1019.89 1020.05 1020.23 1020.39 1020.56 1020.73 1020.94 1021.18
1019.62 1019.87 1020.19 1020.50 1020.74 1020.84 1020.74 1020.46 1020.00 1019.42 1018.80 1018.22 1017.75 1017.42 1017.26 1017.24 1017.34 1017.52 1017.72 1017.90 1018.07 1018.20 1018.32 1018.45 1018.60 1018.78 1019.00 1019.23 1019.45 1019.63 1019.76 1019.81 1019.79 1019.72 1019.62 1019.53 1019.47 1019.46 1019.50 1019.60 1019.74 1019.90 1020.06 1020.21 1020.37 1020.52 1020.70 1020.92 1021.18
1019.86 1020.18 1020.57 1020.94 1021.21 1021.31 1021.21 1020.88 1020.37 1019.72 1019.04 1018.40 1017.86 1017.49 1017.30 1017.27 1017.37 1017.56 1017.77 1017.97 1018.14 1018.27 1018.38 1018.48 1018.59 1018.72 1018.89 1019.06 1019.23 1019.38 1019.48 1019.53 1019.53 1019.48 1019.43 1019.38 1019.36 1019.39 1019.46 1019.58 1019.73 1019.89 1020.05 1020.19 1020.34 1020.49 1020.67 1020.89 1021.16
1020.16 1020.53 1020.95 1021.34 1021.62 1021.72 1021.60 1021.24 1020.68 1020.00 1019.27 1018.58 1018.02 1017.63 1017.42 1017.39 1017.49 1017.68 1017.90 1018.10 1018.26 1018.37 1018.44 1018.49 1018.55 1018.61 1018.70 1018.82 1018.93 1019.04 1019.13 1019.18 1019.19 1019.19 1019.18 1019.19 1019.22 1019.29 1019.40 1019.54 1019.70 1019.86 1020.02 1020.16 1020.30 1020.45 1020.63 1020.85 1021.13
1020.47 1020.86 1021.29 1021.69 1021.96 1022.05 1021.90 1021.52 1020.95 1020.26 1019.52 1018.83 1018.27 1017.87 1017.66 1017.63 1017.73 1017.91 1018.12 1018.30 1018.43 1018.51 1018.52 1018.51 1018.48 1018.47 1018.48 1018.52 1018.58 1018.65 1018.71 1018.78 1018.82 1018.87 1018.91 1018.97 1019.05 1019.17 1019.31 1019.47 1019.63 1019.80 1019.95 1020.10 1020.24 1020.40 1020.58 1020.80 1021.06
1020.75 1021.13 1021.55 1021.93 1022.18 1022.26 1022.11 1021.74 1021.19 1020.52 1019.81 1019.15 1018.62 1018.24 1018.05 1018.01 1018.10 1018.26 1018.44 1018.58 1018.66 1018.67 1018.62 1018.52 1018.41 1018.31 1018.23 1018.20 1018.20 1018.23 1018.29 1018.36 1018.44 1018.52 1018.62 1018.73 1018.85 1019.00 1019.16 1019.33 1019.50 1019.67 1019.83 1019.97 1020.13 1020.29 1020.48 1020.70 1020.96
1020.95 1021.30 1021.69 1022.04 1022.27 1022.33 1022.20 1021.86 1021.37 1020.76 1020.13 1019.54 1019.06 1018.72 1018.54 1018.51 1018.58 1018.70 1018.83 1018.91 1018.93 1018.87 1018.73 1018.56 1018.36 1018.17 1018.01 1017.90 1017.85 1017.84 1017.88 1017.95 1018.05 1018.16 1018.29 1018.44 1018.59 1018.75 1018.93 1019.10 1019.27 1019.44 1019.60 1019.76 1019.93 1020.11 1020.31 1020.54 1020.80
1021.06 1021.37 1021.70 1022.00 1022.20 1022.26 1022.16 1021.88 1021.47 1020.96 1020.43 1019.94 1019.53 1019.25 1019.09 1019.05 1019.10 1019.18 1019.25 1019.27 1019.22 1019.08 1018.88 1018.62 1018.34 1018.08 1017.85 1017.67 1017.56 1017.51 1017.52 1017.58 1017.67 1017.79 1017.93 1018.09 1018.25 1018.41 1018.58 1018.75 1018.92 1019.09 1019.26 1019.44 1019.63 1019.84 1020.07 1020.31 1020.57
Thickness
5697 5699 5698 5689 5670 5653 5656 5667 5680 5687 5692 5701 5706 5706 5704 5702 5702 5699 5712 5721 5722 5721 5720 5719 5718 5718 5717 5717 5717 5717 5717 5717 5717 5717 5717 5717 5717 5717 5717 5717 5717 5718 5718 5718 5718 5718 5718 5718 5718
5692 5693 5686 5671 5652 5641 5651 5666 5674 5683 5691 5698 5700 5701 5699 5699 5705 5707 5710 5715 5717 5717 5716 5715 5714 5714 5713 5713 5713 5713 5713 5713 5713 5714 5714 5713 5713 5713 5713 5713 5713 5713 5714 5714 5714 5714 5714 5714 5714
5687 5685 5669 5654 5644 5642 5653 5667 5672 5682 5688 5691 5692 5695 5694 5693 5700 5703 5708 5711 5712 5711 5710 5709 5709 5709 5709 5709 5709 5709 5709 5709 5709 5710 5710 5709 5709 5708 5708 5708 5708 5709 5709 5710 5710 5711 5711 5711 5711
5677 5667 5657 5644 5643 5650 5658 5666 5670 5674 5680 5685 5685 5683 5687 5692 5696 5700 5704 5706 5705 5704 5704 5704 5704 5704 5704 5704 5704 5704 5705 5705 5705 5705 5705 5704 5704 5703 5704 5703 5703 5704 5705 5705 5706 5707 5707 5708 5708
5666 5653 5642 5634 5641 5650 5657 5664 5667 5667 5671 5676 5677 5673 5676 5685 5691 5694 5696 5698 5698 5698 5698 5698 5698 5698 5699 5699 5699 5700 5700 5700 5700 5700 5700 5699 5698 5698 5698 5698 5698 5699 5700 5701 5702 5703 5704 5704 5705
5649 5641 5628 5626 5637 5648 5655 5661 5663 5662 5664 5669 5669 5666 5669 5677 5681 5684 5688 5689 5691 5692 5692 5692 5692 5692 5693 5694 5694 5694 5695 5695 5695 5695 5694 5693 5693 5693 5694 5693 5694 5694 5695 5696 5697 5698 5699 5700 5701
5640 5631 5626 5629 5634 5641 5651 5657 5655 5655 5657 5662 5664 5659 5662 5669 5673 5676 5679 5681 5682 5684 5685 5685 5686 5687 5688 5688 5689 5689 5690 5690 5690 5689 5688 5687 5687 5688 5688 5688 5689 5689 5690 5691 5692 5693 5694 5696 5696
5638 5628 5626 5626 5631 5637 5647 5651 5652 5651 5653 5660 5661 5654 5654 5663 5667 5669 5670 5671 5673 5676 5678 5679 5679 5680 5682 5683 5683 5684 5684 5684 5684 5683 5682 5682 5682 5682 5682 5683 5683 5684 5685 5685 5686 5687 5689 5690 5691
5636 5619 5617 5624 5630 5636 5643 5642 5645 5650 5650 5653 5655 5655 5658 5661 5661 5660 5659 5660 5662 5666 5669 5672 5673 5674 5675 5677 5677 5678 5677 5678 5678 5677 5677 5676 5676 5676 5677 5677 5678 5678 5679 5680 5681 5682 5683 5685 5686
5624 5613 5622 5631 5634 5635 5636 5637 5637 5639 5639 5641 5645 5648 5651 5652 5652 5650 5650 5650 5653 5656 5660 5664 5666 5667 5669 5670 5671 5671 5672 5672 5672 5671 5671 5671 5671 5671 5671 5671 5672 5672 5673 5674 5675 5676 5677 5679 5680
5622 5617 5625 5629 5632 5632 5631 5631 5633 5631 5631 5636 5637 5640 5642 5643 5643 5643 5643 5645 5646 5649 5653 5656 5658 5660 5662 5663 5664 5665 5665 5665 5666 5666 5666 5665 5665 5665 5665 5665 5665 5666 5667 5668 5669 5670 5671 5673 5674
5618 5621 5623 5625 5627 5626 5625 5627 5626 5628 5632 5638 5638 5637 5636 5635 5635 5636 5637 5639 5640 5642 5645 5648 5651 5653 5655 5657 5658 5658 5659 5659 5659 5660 5660 5660 5659 5659 5659 5659 5659 5660 5660 5662 5663 5664 5666 5667 5668
5614 5616 5619 5620 5620 5620 5620 5621 5621 5626 5632 5633 5632 5631 5630 5630 5630 5631 5632 5632 5633 5635 5638 5641 5643 5646 5648 5650 5651 5651 5652 5653 5653 5654 5654 5655 5654 5654 5653 5653 5653 5653 5654 5656 5657 5659 5660 5661 5662
5611 5611 5612 5614 5615 5615 5614 5616 5615 5625 5627 5626 5625 5625 5625 5625 5625 5624 5625 5625 5628 5630 5632 5634 5637 5639 5641 5643 5644 5645 5646 5647 5647 5647 5648 5649 5649 5649 5648 5648 5647 5648 5649 5650 5651 5653 5654 5654 5655
5606 5602 5605 5609 5610 5610 5608 5608 5614 5623 5621 5620 5621 5621 5620 5620 5620 5620 5621 5621 5623 5624 5625 5628 5631 5632 5634 5636 5637 5638 5639 5640 5640 5641 5642 5643 5644 5643 5643 5642 5642 5642 5643 5644 5645 5646 5647 5648 5649
5596 5591 5591 5605 5606 5606 5599 5602 5617 5619 5615 5614 5615 5616 5615 5616 5616 5617 5617 5617 5617 5618 5619 5622 5624 5625 5626 5628 5630 5631 5631 5632 5633 5634 5635 5637 5638 5638 5637 5637 5636 5637 5637 5638 5639 5639 5639 5640 5641
5581 5576 5583 5595 5602 5599 5593 5599 5612 5613 5610 5610 5611 5611 5611 5611 5612 5612 5612 5612 5613 5613 5614 5615 5617 5617 5618 5620 5621 5623 5623 5624 5626 5627 5628 5630 5631 5632 5632 5631 5631 5631 5631 5631 5632 5632 5632 5632 5632
5574 5572 5578 5585 5595 5592 5588 5596 5606 5607 5606 5606 5606 5605 5605 5606 5608 5608 5607 5607 5607 5607 5608 5609 5610 5610 5610 5610 5611 5612 5614 5615 5617 5618 5620 5623 5624 5625 5626 5625 5625 5624 5624 5624 5624 5624 5624 5624 5625
5576 5574 5575 5583 5590 5585 5585 5592 5602 5603 5601 5601 5600 5600 5601 5603 5605 5604 5602 5602 5601 5600 5600 5601 5603 5602 5602 5601 5602 5603 5605 5606 5608 5610 5612 5614 5616 5618 5618 5618 5618 5617 5617 5617 5617 5616 5616 5615 5617
5568 5566 5569 5576 5581 5579 5580 5587 5597 5600 5600 5600 5599 5598 5597 5597 5598 5598 5596 5595 5595 5594 5594 5594 5595 5595 5595 5594 5595 5595 5596 5597 5599 5601 5603 5606 5608 5610 5611 5610 5610 5610 5610 5608 5609 5609 5608 5607 5609
5562 5561 5564 5565 5569 5570 5570 5578 5589 5596 5598 5597 5597 5597 5596 5595 5594 5593 5591 5590 5589 5588 5588 5589 5588 5588 5588 5587 5585 5585 5585 5587 5588 5591 5594 5597 5600 5601 5603 5603 5603 5602 5603 5602 5601 5602 5601 5600 5599
5556 5564 5562 5560 5552 5547 5557 5553 5581 5587 5589 5592 5592 5590 5591 5591 5590 5588 5587 5585 5583 5583 5582 5581 5581 5580 5580 5579 5578 5578 5578 5579 5581 5584 5586 5588 5591 5593 5593 5594 5595 5595 5595 5595 5594 5594 5594 5593 5592
5554 5559 5555 5552 5546 5539 5543 5540 5566 5577 5581 5587 5587 5587 5587 5587 5585 5583 5582 5580 5579 5577 5575 5574 5573 5572 5572 5571 5571 5571 5570 5570 5570 5573 5576 5579 5582 5584 5585 5585 5585 5586 5587 5586 5586 5585 5585 5585 5584
5551 5547 5543 5535 5529 5531 5542 5534 5555 5566 5578 5584 5584 5583 5582 5582 5580 5578 5576 5574 5571 5569 5567 5566 5564 5564 5563 5562 5562 5563 5563 5562 5562 5564 5566 5569 5572 5574 5575 5576 5576 5576 5576 5577 5577 5576 5576 5576 5575
5540 5531 5522 5521 5518 5531 5541 5536 5555 5573 5577 5579 5579 5578 5577 5576 5573 5571 5569 5566 5564 5562 5560 5559 5557 5555 5554 5554 5554 5555 5555 5556 5556 5557 5558 5561 5563 5565 5566 5567 5566 5565 5566 5566 5566 5566 5566 5566 5566
5532 5530 5522 5521 5521 5524 5532 5534 5557 5570 5571 5572 5572 5571 5571 5569 5567 5566 5564 5562 5559 5557 5555 5553 5551 5549 5547 5546 5546 5547 5548 5548 5548 5549 5550 5553 5555 5557 5558 5557 5556 5556 5556 5556 5556 5555 5555 5555 5555
5524 5521 5526 5515 5510 5509 5521 5535 5554 5565 5564 5564 5564 5563 5562 5562 5562 5561 5559 5556 5554 5552 5550 5548 5546 5544 5542 5540 5540 5539 5541 5541 5541 5541 5542 5544 5546 5548 5547 5547 5546 5546 5545 5545 5545 5544 5544 5545 5545
5525 5521 5508 5507 5509 5511 5520 5527 5539 5550 5553 5555 5555 5554 5555 5555 5554 5554 5552 5550 5548 5547 5544 5542 5541 5539 5537 5535 5535 5534 5533 5534 5534 5533 5534 5535 5537 5538 5537 5537 5536 5536 5535 5535 5534 5534 5534 5534 5534
5513 5513 5510 5503 5503 5506 5511 5525 5545 5546 5546 5544 5544 5546 5547 5548 5547 5546 5545 5543 5541 5539 5537 5536 5535 5533 5531 5530 5529 5527 5527 5527 5527 5526 5527 5527 5528 5528 5528 5528 5527 5526 5526 5525 5524 5524 5524 5524 5524
5515 5514 5508 5504 5501 5497 5499 5517 5540 5536 5535 5535 5535 5538 5538 5539 5538 5537 5536 5535 5533 5531 5530 5529 5528 5527 5526 5525 5524 5521 5520 5520 5519 5519 5519 5519 5519 5520 5519 5519 5518 5517 5517 5517 5516 5515 5515 5515 5515